1269 visiteurs
Prévisions de votre ville :
Vigilance : 4 départements 1 département Mise à jour le 17/10/2018 à 06:01 - Voir la carte

Paris Roissy CDG (95380) le 17/10/2018 à 06:30 Choisir station

13°C 88 % N Vit. moyenne 4 kmh/h

Relevés météo quotidiens pour la station de :

UTC
S: Synop
M: Metar
Loc T°C
(°C)
Td
(°C)
HR
(%)
Vis
(km)
Néb
(octa)
Vent
(km/h)
Pression
(mb)
Précipitations
(mm)
Temps
              MOY
10 min
DIR RAF 1h MESURE VAR SUR 3h    
S 00 h 02h 16.1 12.3 78 8 8/8 37 56 1005.7 -0.4/3h 0.4/6h - 0.4/3h
S 01 h 03h 15.6 11.2 75 /8 9 28 1005.2 -0.8/3h 0.6/1h -
S 02 h 04h 14.7 11.5 81 /8 11 19 1005.1 -0.7/3h 0.0/1h -
S 03 h 05h 15.2 11.6 79 10 8/8 15 26 1004.8 -0.9/3h 0.6/3h
S 04 h 06h 15.3 12.1 81 /8 28 50 1004.8 -0.4/3h 0.0/1h -
S 05 h 07h 14.7 12.2 85 /8 15 24 1004.7 -0.4/3h 0.0/1h -
S 06 h 08h 14.7 12.7 88 /8 26 48 1004.7 -0.1/3h 1.0/12h - 0.0/3h - 1.0/24h -
S 07 h 09h 14.6 13.0 90 /8 13 22 1005.4 +0.6/3h 0.0/1h -
S 08 h 10h 16.1 13.2 83 /8 13 24 1005.4 +0.7/3h 0.0/1h -
S 09 h 11h 17.7 13.6 77 30 4/8 11 22 1005.4 +0.8/3h 0.0/3h
S 10 h 12h 18.1 13.4 74 /8 13 22 1004.8 -0.5/3h 0.0/1h -
S 11 h 13h 19.3 13.5 69 /8 30 43 1004.8 -0.4/3h 0.0/1h -
S 12 h 14h 19.5 13.7 69 20 6/8 31 61 1005.4 +0.1/3h 0.0/6h - 0.0/3h
S 13 h 15h 19.3 13.5 69 /8 15 24 1005.5 +0.8/3h 0.0/1h -
S 14 h 16h 19.2 13.4 69 /8 15 24 1005.9 +1.0/3h 0.0/1h -
S 15 h 17h 18.8 13.2 70 /8 13 20 1006.5 +1.0/3h 0.0/3h -
S 16 h 18h 18.5 12.7 69 /8 24 33 1006.8 +1.2/3h 0.0/1h -
S 17 h 19h 16.1 15.0 93 /8 11 46 1007.3 +1.3/3h 2.0/1h -
S 18 h 20h 15.7 14.6 93 /8 24 37 1007.4 +0.8/3h 4.0/12h - 4.0/3h -
S 19 h 21h 15.5 13.9 90 /8 9 43 1007.8 +0.9/3h 0.4/1h -
S 20 h 22h 15.0 13.5 91 /8 11 19 1009.1 +1.7/3h 0.0/1h -
S 21 h 23h 14.7 13.1 90 /8 13 22 1010.3 +2.8/3h 0.4/3h -
S 22 h 00h 14.5 12.9 90 /8 17 26 1011.0 +3.1/3h 0.0/1h -
S 23 h 01h 14.2 12.4 89 /8 31 50 1011.5 +2.4/3h 0.0/1h -
evolution des temperatures
cumul des precipitations
vent moyen et rafales
pression atmospherique

Un tiret (-) signifie que les données ne sont pas disponibles.

Passez la souris sur les pictos temps pour avoir plus de précisions. Passez les flèches sur l'icône de la direction du vent pour voir la direction précise en degrés.

Les données de l'heure en cours sont disponibles à partir de H+15 minutes.


S signifie station Synop, plus complète qu'une station Metar (M). Il y a +1h de différence entre l'heure UTC et l'heure légale en hiver et +2h en été.

Td est la mesure du point de rosée.

HR est l'humidité relative/p>

Vis est la visibilité

Néb est la nébulosité du ciel (couverture nuageuse) exprimée en octas (de 0/8 à 8/8).

Vent moy 10 min donne le vent moyen sur les 10 minutes qui précèdent le relevé.

Vent raf 1h donne la rafale maximale mesurée dans l'heure qui précède le relevé.


Les données les plus anciennes remontent à avril 2014.

Les données présentées sur cette page proviennent des stations météo officielles. Les relevés sont effectués aux normes en vigueur (anémomètre à 10m de haut, thermomètre sous abri normalisé à 2m du sol...)

Météo 60 décline toute responsabilité en cas d'absence de données, d'erreurs, de mauvaise utilisation ou interprétation et n'est pas habilité à fournir des certificats intempéries.